This demonstration page uses our WeatherBlox Daily Observations layout. Learn more.

Left ArrowRight Arrow

39.95238, -75.16362

Hourly Observations for June 11, 2022

Temp ( °F °C ) Dew Point ( °F °C ) Humidity (%) Winds ( mph kmh ) Pressure ( in mb ) Visibility ( mi km ) Precip ( " mm )
12:54 am 00:54 Mostly Cloudy 71 21.7 61 16.1 71 71 S 5 7 29.91 1013 10 16 0.00 0.00
1:54 am 01:54 Mostly Cloudy 71 21.7 62 16.7 73 73 S 6 9 29.91 1013 10 16 0.00 0.00
2:54 am 02:54 Mostly Cloudy 70 21.1 62 16.7 76 76 SSW 5 7 29.90 1012 10 16 0.00 0.00
3:54 am 03:54 Partly Cloudy 70 21.1 61 16.1 73 73 Calm 29.89 1012 10 16 0.00 0.00
4:54 am 04:54 Partly Cloudy 70 21.1 62 16.7 76 76 WSW 5 7 29.88 1012 10 16 0.00 0.00
5:54 am 05:54 Mostly Cloudy 69 20.6 61 16.1 76 76 Calm 29.90 1012 10 16 0.00 0.00
6:54 am 06:54 Mostly Cloudy 70 21.1 58 14.4 66 66 N 3 6 29.90 1013 10 16 0.00 0.00
7:54 am 07:54 Cloudy 71 21.7 54 12.2 55 55 Calm 29.92 1013 10 16 0.00 0.00
8:54 am 08:54 Cloudy 72 22.2 55 12.8 55 55 N 5 7 29.93 1014 10 16 0.00 0.00
9:54 am 09:54 Cloudy 74 23.3 56 13.3 54 54 ENE 3 6 29.93 1014 10 16 0.00 0.00
10:54 am 10:54 Cloudy 74 23.3 54 12.2 50 50 W 3 6 29.95 1014 10 16 0.00 0.00
11:54 am 11:54 Cloudy with Light Rain 73 22.8 59 15 62 62 WNW 8 13 29.96 1015 10 16 0.00 0.00
12:54 pm 12:54 Cloudy with Light Rain 72 22.2 53 11.7 52 52 NW 8 13 29.96 1015 10 16 0.00 0.00
1:54 pm 13:54 Cloudy with Light Rain 72 22.2 54 12.2 53 53 W 5 7 29.96 1015 10 16 0.00 0.00
2:54 pm 14:54 Cloudy 72 22.2 53 11.7 52 52 SSW 5 7 29.94 1014 10 16 0.00 0.00
3:54 pm 15:54 Cloudy 71 21.7 49 9.4 46 46 Calm 29.93 1014 10 16 0.00 0.00
4:54 pm 16:54 Cloudy 70 21.1 53 11.7 55 55 N 5 7 29.93 1014 10 16 0.00 0.00
5:54 pm 17:54 Mostly Cloudy 72 22.2 55 12.8 55 55 SSW 5 7 29.92 1013 10 16 0.00 0.00
6:54 pm 18:54 Mostly Cloudy 72 22.2 55 12.8 55 55 SSW 8 13 29.93 1014 10 16 0.00 0.00
7:54 pm 19:54 Partly Cloudy 71 21.7 55 12.8 57 57 SSW 8 13 29.94 1014 10 16 0.00 0.00
8:54 pm 20:54 Partly Cloudy 70 21.1 56 13.3 61 61 SW 8 13 29.95 1014 10 16 0.00 0.00
9:54 pm 21:54 Partly Cloudy 69 20.6 57 13.9 66 66 SSW 7 11 29.96 1015 10 16 0.00 0.00
10:54 pm 22:54 Mostly Cloudy 67 19.4 58 14.4 73 73 SSW 6 9 29.97 1015 10 16 0.00 0.00
11:54 pm 23:54 Mostly Cloudy 67 19.4 59 15 76 76 Calm 29.98 1015 10 16 0.00 0.00

Powered by AerisWeather